Date String (YYYY-MM-DD hh:mm:ss) UTC,Instrument flags,Ambient pressure (hPa),Sample flow (lpm),Bypass flow (lpm),Sample temperature (°C),Ambient temperature (°C),ASC tube jacket temperature (°C),LED temperature (°C),Box temperature (°C),Sample RH (%),Span deviation,Mass concentration (μg/m³),Mass concentration (μg/m³),Mass concentration (μg/m³)
DateTimeUTC,F1_M11,P_M11,Q1_M11,Q2_M11,T1_M11,T2_M11,T3_M11,T4_M11,T5_M11,U1_M11,ZSPAN_M11,X0_M11,X2_M11,X1_M11
2021-09-05 02:00:00,,0829.4,5.00,0.00,29.5,28.5,00.0,38.4,31.4,23.6,0001.7,0021.60,0016.46,0015.46
2021-09-05 02:01:00,,0829.5,5.02,0.00,29.5,28.7,00.0,38.4,31.4,23.4,0001.7,0021.81,0016.52,0015.47
2021-09-05 02:02:00,,0829.5,5.01,0.00,29.5,28.1,00.0,38.5,31.3,23.4,0002.0,0022.71,0016.54,0015.46
2021-09-05 02:03:00,,0829.5,5.00,0.00,29.4,26.3,00.0,38.4,30.8,23.6,0002.2,0023.18,0016.53,0015.45
2021-09-05 02:04:00,,0829.5,5.01,0.00,29.3,25.5,00.0,38.4,30.5,23.8,0002.3,0024.06,0016.52,0015.44
2021-09-05 02:05:00,,0829.5,4.99,0.00,29.2,25.8,00.0,38.4,30.6,24.8,0002.3,0024.40,0016.55,0015.45
2021-09-05 02:06:00,,0829.6,5.01,0.00,29.1,26.3,00.0,38.3,30.7,26.0,0002.3,0025.02,0016.62,0015.48
2021-09-05 02:07:00,,0829.5,5.00,0.00,29.1,26.8,00.0,38.3,30.8,26.0,0002.4,0025.19,0016.65,0015.50
2021-09-05 02:08:00,,0829.5,5.00,0.00,29.1,27.2,00.0,38.3,30.9,25.9,0002.5,0025.49,0016.67,0015.53
2021-09-05 02:09:00,,0829.5,5.00,0.00,29.2,27.5,00.0,38.3,31.0,25.8,0002.4,0025.94,0016.72,0015.54
2021-09-05 02:10:00,,0829.6,5.01,0.00,29.2,27.8,00.0,38.3,31.0,26.2,0002.4,0026.80,0016.77,0015.56
2021-09-05 02:11:00,,0829.6,4.99,0.00,29.3,28.1,00.0,38.3,31.1,26.1,0002.1,0026.90,0016.74,0015.54
2021-09-05 02:12:00,,0829.6,5.00,0.00,29.3,28.3,00.0,38.3,31.2,25.7,0002.2,0026.43,0016.71,0015.52
2021-09-05 02:13:00,,0829.7,4.99,0.00,29.4,28.4,00.0,38.3,31.2,25.1,0002.0,0025.99,0016.68,0015.50
2021-09-05 02:14:00,,0829.6,5.00,0.00,29.4,28.6,00.0,38.3,31.3,25.1,0002.0,0025.44,0016.68,0015.48
2021-09-05 02:15:00,,0829.7,5.00,0.00,29.4,28.7,00.0,38.4,31.3,24.8,0001.8,0024.67,0016.74,0015.50
2021-09-05 02:16:00,,0829.7,5.01,0.00,29.5,28.8,00.0,38.4,31.4,24.7,0001.4,0024.27,0016.69,0015.49
2021-09-05 02:17:00,,0829.7,4.99,0.00,29.5,28.7,00.0,38.4,31.4,24.5,0001.4,0023.62,0016.63,0015.48
2021-09-05 02:18:00,,0829.7,5.00,0.00,29.5,27.1,00.0,38.4,31.0,24.5,0001.1,0023.16,0016.56,0015.47
2021-09-05 02:19:00,,0829.7,4.99,0.00,29.3,25.5,00.0,38.4,30.5,24.4,0000.9,0023.10,0016.50,0015.42
2021-09-05 02:20:00,,0829.7,5.01,0.00,29.2,25.4,00.0,38.4,30.5,24.5,0000.9,0023.04,0016.42,0015.37
2021-09-05 02:21:00,,0829.7,5.00,0.00,29.1,25.9,00.0,38.3,30.5,24.7,0000.9,0022.09,0016.34,0015.29
2021-09-05 02:22:00,,0829.7,4.99,0.00,29.1,26.4,00.0,38.3,30.7,24.6,0001.1,0021.82,0016.30,0015.24
2021-09-05 02:23:00,,0829.8,5.02,0.00,29.1,26.8,00.0,38.3,30.8,24.9,0001.1,0022.19,0016.28,0015.21
2021-09-05 02:24:00,,0829.8,4.99,0.00,29.1,27.3,00.0,38.2,30.9,24.8,0001.1,0022.96,0016.25,0015.18
2021-09-05 02:25:00,,0829.8,5.00,0.00,29.1,27.6,00.0,38.2,30.9,24.7,0001.2,0023.17,0016.24,0015.18
2021-09-05 02:26:00,,0829.9,5.00,0.00,29.2,27.9,00.0,38.3,31.0,25.0,0001.3,0023.08,0016.19,0015.16
2021-09-05 02:27:00,,0829.9,5.00,0.00,29.2,28.1,00.0,38.3,31.1,25.4,0001.4,0023.07,0016.16,0015.14
2021-09-05 02:28:00,,0829.8,5.00,0.00,29.3,28.3,00.0,38.3,31.1,25.1,0001.6,0023.14,0016.13,0015.10
2021-09-05 02:29:00,,0829.9,5.00,0.00,29.3,28.4,00.0,38.3,31.2,25.5,0001.9,0023.41,0016.14,0015.09
2021-09-05 02:30:00,,0829.8,5.00,0.00,29.4,28.5,00.0,38.3,31.3,26.3,0002.1,0023.76,0016.15,0015.09
2021-09-05 02:31:00,,0829.9,5.00,0.00,29.4,28.6,00.0,38.3,31.3,25.5,0002.0,0023.28,0016.16,0015.11
2021-09-05 02:32:00,,0829.9,4.99,0.00,29.5,28.7,00.0,38.4,31.4,24.9,0002.0,0023.79,0016.22,0015.18
2021-09-05 02:33:00,,0829.8,5.00,0.00,29.5,28.8,00.0,38.4,31.4,24.7,0001.9,0023.82,0016.27,0015.24
2021-09-05 02:34:00,,0829.8,5.00,0.00,29.6,28.8,00.0,38.4,31.4,24.1,0001.7,0023.50,0016.33,0015.27
2021-09-05 02:35:00,,0829.8,5.01,0.00,29.5,27.3,00.0,38.4,31.0,23.5,0001.7,0022.36,0016.29,0015.28
2021-09-05 02:36:00,,0829.8,5.00,0.00,29.4,26.2,00.0,38.4,30.7,23.5,0001.5,0022.08,0016.26,0015.26
2021-09-05 02:37:00,,0829.9,5.00,0.00,29.3,26.4,00.0,38.4,30.8,23.6,0001.5,0022.73,0016.28,0015.24
2021-09-05 02:38:00,,0829.9,5.00,0.00,29.2,26.8,00.0,38.4,30.8,23.5,0001.5,0022.88,0016.31,0015.23
2021-09-05 02:39:00,,0829.9,5.00,0.00,29.2,27.2,00.0,38.4,30.9,23.2,0001.4,0022.97,0016.26,0015.20
2021-09-05 02:40:00,,0830.0,5.00,0.00,29.3,27.5,00.0,38.4,31.0,23.1,0001.2,0023.13,0016.22,0015.16
2021-09-05 02:41:00,,0829.8,5.01,0.00,29.3,27.8,00.0,38.4,31.1,23.0,0001.2,0022.79,0016.18,0015.14
2021-09-05 02:42:00,,0830.0,5.00,0.00,29.3,28.1,00.0,38.4,31.2,23.0,0001.2,0022.89,0016.14,0015.12
2021-09-05 02:43:00,,0830.0,4.99,0.00,29.4,28.3,00.0,38.4,31.2,23.0,0001.1,0022.71,0016.01,0015.05
2021-09-05 02:44:00,,0830.0,5.02,0.00,29.4,28.4,00.0,38.4,31.3,23.1,0001.1,0023.07,0015.90,0014.98
2021-09-05 02:45:00,,0830.0,4.99,0.00,29.5,28.6,00.0,38.4,31.3,22.9,0001.2,0023.03,0015.85,0014.96
2021-09-05 02:46:00,,0830.0,4.99,0.00,29.5,28.7,00.0,38.5,31.4,23.2,0001.3,0023.22,0015.89,0014.97
2021-09-05 02:47:00,,0830.0,4.99,0.00,29.6,28.8,00.0,38.5,31.4,24.2,0001.4,0024.61,0015.86,0014.98
2021-09-05 02:48:00,,0830.0,5.01,0.00,29.6,27.9,00.0,38.5,31.2,25.1,0001.4,0024.32,0015.90,0015.03
2021-09-05 02:49:00,,0830.0,4.99,0.00,29.5,26.4,00.0,38.5,30.9,25.3,0001.3,0024.27,0015.90,0015.08
2021-09-05 02:50:00,,0830.1,5.00,0.00,29.4,26.3,00.0,38.5,30.8,25.1,0001.1,0024.22,0015.99,0015.18
2021-09-05 02:51:00,,0830.1,5.00,0.00,29.3,26.7,00.0,38.4,30.9,25.2,0001.1,0024.70,0016.12,0015.28
2021-09-05 02:52:00,,0830.1,5.01,0.00,29.3,27.1,00.0,38.4,31.0,25.3,0001.2,0024.59,0016.30,0015.39
2021-09-05 02:53:00,,0830.1,5.00,0.00,29.3,27.4,00.0,38.4,31.0,24.9,0001.2,0025.23,0016.47,0015.49
2021-09-05 02:54:00,,0830.1,5.01,0.00,29.3,27.7,00.0,38.4,31.1,24.6,0001.0,0025.07,0016.62,0015.58
2021-09-05 02:55:00,,0830.0,4.98,0.00,29.4,28.0,00.0,38.4,31.2,24.0,0001.2,0024.72,0016.77,0015.69
2021-09-05 02:56:00,,0830.1,5.01,0.00,29.4,28.2,00.0,38.4,31.2,23.6,0001.3,0024.74,0016.84,0015.74
2021-09-05 02:57:00,,0830.1,4.99,0.00,29.4,28.4,00.0,38.4,31.3,23.7,0001.2,0024.65,0016.87,0015.79
2021-09-05 02:58:00,,0830.1,5.01,0.00,29.5,28.5,00.0,38.5,31.3,23.7,0001.1,0023.59,0016.98,0015.88
2021-09-05 02:59:00,,0830.1,5.00,0.00,29.5,28.6,00.0,38.5,31.3,23.9,0001.2,0023.42,0017.01,0015.92
